Find Starlink 30839

NORAD ID: 58209 Int'l Des: 2023-170 Owner: SPXS Country: US Constellation: starlink operational
LEOCIRCULAR

現在のビュー

3D地球を読み込み中...

About Starlink 30839

Starlink 30839 (NORAD 58209) is a starlink constellation satellite (v2 mini) launched Nov 4, 2023 by SPXS of US. It operates in LEO, CIRCULAR orbit with a mass of 730.00 kg.

Starlink 30839について

説明を読み込み中...

次回通過

Passes for default location (London). Set your location on the main map for personalized predictions.

高度履歴

Loading altitude history...

軌道要素

1 58209U 23170D 26165.85724250 .00000400 00000-0 24075-4 0 9996
2 58209 43.0047 5.1655 0000970 264.3082 95.7659 15.27574029145167
Epoch: Jun 14, 2026 • Age: 23 hours

現在のステータス

高度 493.2 km
速度 7.62 km/s
衛星直下点 -36.67°S, 105.32°E
打ち上げ日 Nov 4, 2023
運用期間 2.6 years
タイプ internet

技術仕様

分類 Payload
質量 730.00 kg
乾燥質量 700.00 kg
総質量 730.00 kg
長さ 0.30 m
直径 4.10 m
スパン 29.00 m
形状 Box + pan
製造者 SPXS
バスタイプ Starlink V2M
フェーズステータス In Orbit
所有者/国 SPXS/US

Most Searched